Regional Weather Roundup
Issued by NWS

Home | Current Version | Previous Version | Graphics & Text | Print | Product List | Glossary On
Versions: 1 2 3 4 5 6 7 8 9 10 11 12 13 14 15 16 17 18 19 20 21 22 23 24 25 26 27 28 29 30 31 32 33 34 35 36 37 38 39 40 41 42 43 44 45 46 47 48 49 50
000
ASUS43 KDMX 260107
RWRIA

WEATHER ROUNDUP FOR IOWA
NATIONAL WEATHER SERVICE DES MOINES IA
800 PM CDT SAT APR 25 2015

NOTE: "FAIR" INDICATES FEW OR NO CLOUDS BELOW 12,000 FEET WITH NO
SIGNIFICANT WEATHER AND/OR OBSTRUCTIONS TO VISIBILITY.

* - THESE STATIONS ARE NOT NWS STATIONS...THUS NOT UNDER NWS
QUALITY CONTROL.  THEY ALSO DO NOT REPORT WEATHER SUCH
AS PRECIPITATION OR FOG.

IAZ001>003-012>014-020>022-031>034-043>046-260200-
   NORTHWEST IOWA

CITY           SKY/WX    TMP DP  RH WIND       PRES   REMARKS
CARROLL *      CLOUDY    50  43  76 E15G21    29.84R
CHEROKEE *     CLOUDY    52  43  71 E9        29.86R
DENISON *      CLOUDY    50  45  81 E13       29.83R
LE MARS *      CLOUDY    55  41  58 E8        29.86R
ORANGE CITY *  CLOUDY    52  43  71 E12       29.86R
SHELDON *      CLOUDY    52  41  66 E12G20    29.86R
SIOUX CITY     CLOUDY    56  40  55 E13       29.84R
SPENCER        CLOUDY    52  41  66 E13       29.88R
STORM LAKE *   CLOUDY    52  41  66 E13G22    29.86R
$$

IAZ055>058-069>071-079>083-090>094-260200-
   SOUTHWEST IOWA

CITY           SKY/WX    TMP DP  RH WIND       PRES   REMARKS
ATLANTIC *     CLOUDY    50  45  81 NE10      29.82R
AUDUBON *      PTCLDY    50  45  81 NE12      29.84R
CLARINDA *     CLOUDY    50  46  87 NE13      29.81R
COUNCIL BLFS * CLOUDY    50  50 100 NE12      29.81R
CRESTON *      CLOUDY    48  48 100 NE14      29.80R
HARLAN  *      CLOUDY    50  50 100 NE9       29.86R
LAMONI         CLOUDY    48  46  93 NE14      29.77R FOG
RED OAK *      CLOUDY    50  46  87 NE10      29.80R
SHENANDOAH *   CLOUDY    50  46  87 NE13G18   29.81R
$$

IAZ047>049-059>061-072>074-084-260200-
   CENTRAL IOWA

CITY           SKY/WX    TMP DP  RH WIND       PRES   REMARKS
AMES           CLOUDY    50  41  71 E9        29.83R
ANKENY *       CLOUDY    50  43  76 NE10G17   29.81R
CHARITON *     CLOUDY    48  45  87 NE12G18   29.78R
DES MOINES     CLOUDY    51  41  68 E14G20    29.81R
GRINNELL*      CLOUDY    48  41  76 NE14      29.81R
KNOXVILLE *    CLOUDY    50  43  76 NE13      29.78R
MARSHALLTOWN   CLOUDY    49  40  71 NE17      29.83R
PELLA *        CLOUDY    50  46  87 E8        29.81R
PERRY *        CLOUDY    50  43  76 E10       29.83R
$$

IAZ004>006-015-016-023>025-035-036-260200-
   NORTH CENTRAL IOWA

CITY           SKY/WX    TMP DP  RH WIND       PRES   REMARKS
ALGONA *       CLOUDY    50  41  71 E9        29.88R
CLARION *      CLOUDY    50  41  71 NE12G18   29.86R
ESTHERVILLE    CLOUDY    50  39  66 E14       29.88R
FORT DODGE *   CLOUDY    50  39  66 E10       29.86R
MASON CITY     MOCLDY    49  38  65 E9        29.88R
FOREST CITY *  MOCLDY    46  37  71 E3        29.87R
IOWA FALLS *   CLOUDY    50  39  66 E13       29.86R
$$

IAZ007>011-017>019-026>030-037>042-050>054-066-260200-
   NORTHEAST IOWA

CITY           SKY/WX    TMP DP  RH WIND       PRES   REMARKS
CEDAR RAPIDS   CLOUDY    48  39  71 NE20      29.82R
CHARLES CITY * CLOUDY    50  39  66 NE8       29.87R
CLINTON *      PTCLDY    45  37  76 NE18      29.85R
DECORAH *      MOCLDY    50  32  50 CALM      29.86R
DUBUQUE        CLOUDY    47  36  65 NE10      29.85R
MONTICELLO *   CLOUDY    48  39  71 NE9G16    29.84R
OELWEIN *      CLOUDY    48  39  71 E8        29.86R
WATERLOO       CLOUDY    49  39  68 E9        29.85R
$$

IAZ064-065-067-068-078-260200-
   EAST CENTRAL IOWA

CITY           SKY/WX    TMP DP  RH WIND       PRES   REMARKS
DAVENPORT      CLOUDY    46  39  76 NE20      29.81R
IOWA CITY      CLOUDY    49  41  74 NE12      29.83R
MT. PLEASANT * CLOUDY    46  43  87 NE14G24   29.78R
MUSCATINE *    CLOUDY    50  41  71 NE13G23   29.81R
QUAD CITIES    CLOUDY    48  39  71 NE16      29.80R
$$

IAZ062-063-075>077-085>089-095>099-260200-
   SOUTHEAST IOWA

CITY           SKY/WX    TMP DP  RH WIND       PRES   REMARKS
BURLINGTON     CLOUDY    48  44  86 NE16G29   29.75R
FAIRFIELD *    CLOUDY    48  43  81 NE15      29.78R
FORT MADISON * CLOUDY    46  45  93 NE14G23   29.76R
KEOKUK *       CLOUDY    48  45  87 NE10G20   29.74R
OSKALOOSA *    CLOUDY    48  43  81 E20       29.80R
CENTERVILLE *  CLOUDY    46  46 100 NE10      29.78R
OTTUMWA        CLOUDY    48  43  82 E16       29.78R
WASHINGTON *   CLOUDY    48  48 100 NE18G28   29.79R
$$

ABBREVIATIONS USED IN REMARKS
   TC - TEMPERATURES IN CELSIUS
  WCI - WIND CHILL INDEX
   HX - HEAT INDEX
  VSB - VISIBILITY
$$




USA.gov is the U.S. government's official web portal to all federal, state and local government web resources and services.